Simultaneous Nadir Overpasses (SNOs) Predictions

Prediction of SNOs between GOES-14 and AQUA Satellite Orbit:

Table of predicted SNOs for the next 14.0 days since TLE Epoch: 3/27/2021
Index Date Time (GOES-14) GOES-14 Lat,Lon AQUA Lat,Lon Distance(km) Time Diff (sec)
1 03/27/2021 08:23:30 0.12,-104.38 -0.46,-101.72 302.52 80
2 03/27/2021 20:44:53 -0.12,-104.32 -0.65,-106.91 294.03 80
3 03/29/2021 20:30:01 -0.12,-104.31 -0.06,-103.95 41.38 80
4 03/31/2021 20:17:50 -0.12,-104.31 0.60,-101.00 376.66 80
5 04/01/2021 08:39:05 0.12,-104.35 0.53,-106.15 204.80 80
6 04/03/2021 08:29:34 0.13,-104.34 -0.14,-103.20 130.72 80
7 04/03/2021 20:50:58 -0.13,-104.32 -0.98,-108.39 462.52 80
8 04/05/2021 08:17:22 0.13,-104.34 -0.75,-100.24 466.39 80
9 04/05/2021 20:38:46 -0.14,-104.31 -0.37,-105.43 127.22 80
10 04/07/2021 20:23:54 -0.14,-104.30 0.25,-102.47 208.38 80
11 04/08/2021 08:45:09 0.14,-104.31 0.86,-107.62 376.49 80
